| time (UTC) | temp F | wind direction | speed MPH | gust MPH | rain 1hr in | rain 24hr in | rain mn in | humidity % | barometer mb |
| 20260510024535 | 65 | 197 | 1.0 | 2.0 | 0.00 | 0.00 | 0.00 | 53 | 1017.7 |
| 20260510023031 | 66 | 225 | 0.0 | 2.0 | 0.00 | 0.00 | 0.00 | 50 | 1017.8 |
| 20260510021532 | 67 | 260 | 0.0 | 2.0 | 0.00 | 0.00 | 0.00 | 47 | 1017.6 |
| 20260510020034 | 69 | 270 | 0.0 | 1.0 | 0.00 | 0.00 | 0.00 | 42 | 1017.7 |
| 20260510014535 | 71 | 270 | 1.0 | 3.0 | 0.00 | 0.00 | 0.00 | 40 | 1017.9 |
| 20260510013034 | 71 | 275 | 2.0 | 5.0 | 0.00 | 0.00 | 0.00 | 41 | 1018.2 |
| 20260510010033 | 72 | 274 | 2.0 | 7.0 | 0.00 | 0.00 | 0.00 | 40 | 1018.2 |
| 20260510004530 | 73 | 293 | 3.0 | 8.0 | 0.00 | 0.00 | 0.00 | 40 | 1018.2 |
| 20260510001534 | 72 | 316 | 3.0 | 7.0 | 0.00 | 0.00 | 0.00 | 42 | 1018.3 |
| 20260509234643 | 74 | 300 | 4.0 | 10.0 | 0.00 | 0.00 | 0.00 | 41 | 1018.5 |
| 20260509233031 | 74 | 307 | 3.0 | 10.0 | 0.00 | 0.00 | 0.00 | 42 | 1018.6 |
| 20260509231531 | 73 | 300 | 3.0 | 8.0 | 0.00 | 0.00 | 0.00 | 42 | 1018.9 |
| 20260509230030 | 73 | 328 | 4.0 | 10.0 | 0.00 | 0.00 | 0.00 | 42 | 1019.0 |
| 20260509224531 | 73 | 338 | 3.0 | 7.0 | 0.00 | 0.00 | 0.00 | 42 | 1019.3 |
| 20260509223034 | 73 | 299 | 4.0 | 8.0 | 0.00 | 0.00 | 0.00 | 43 | 1019.6 |
| 20260509221607 | 73 | 297 | 4.0 | 11.0 | 0.00 | 0.00 | 0.00 | 45 | 1019.8 |
| 20260509220037 | 73 | 314 | 4.0 | 10.0 | 0.00 | 0.00 | 0.00 | 46 | 1019.9 |
| 20260509214528 | 73 | 310 | 4.0 | 9.0 | 0.00 | 0.00 | 0.00 | 47 | 1020.0 |
| 20260509213029 | 71 | 302 | 4.0 | 13.0 | 0.00 | 0.00 | 0.00 | 49 | 1020.2 |
| 20260509211532 | 71 | 325 | 4.0 | 9.0 | 0.00 | 0.00 | 0.00 | 49 | 1020.3 |
| 20260509210032 | 71 | 319 | 3.0 | 8.0 | 0.00 | 0.00 | 0.00 | 49 | 1020.5 |
| 20260509203030 | 70 | 299 | 4.0 | 10.0 | 0.00 | 0.00 | 0.00 | 51 | 1020.7 |
| 20260509201530 | 70 | 327 | 4.0 | 10.0 | 0.00 | 0.00 | 0.00 | 51 | 1020.9 |
| 20260509200031 | 69 | 318 | 4.0 | 9.0 | 0.00 | 0.00 | 0.00 | 51 | 1021.1 |
| 20260509194533 | 69 | 321 | 4.0 | 8.0 | 0.00 | 0.00 | 0.00 | 50 | 1021.2 |
| 20260509193031 | 69 | 298 | 3.0 | 11.0 | 0.00 | 0.00 | 0.00 | 50 | 1021.3 |
| 20260509191534 | 67 | 330 | 3.0 | 8.0 | 0.00 | 0.00 | 0.00 | 50 | 1021.4 |
| 20260509190107 | 67 | 326 | 4.0 | 10.0 | 0.00 | 0.00 | 0.00 | 51 | 1021.6 |
| 20260509184610 | 66 | 304 | 3.0 | 7.0 | 0.00 | 0.00 | 0.00 | 52 | 1021.8 |
| 20260509183029 | 65 | 348 | 4.0 | 9.0 | 0.00 | 0.00 | 0.00 | 51 | 1021.9 |
| 20260509181652 | 64 | 334 | 4.0 | 8.0 | 0.00 | 0.00 | 0.00 | 50 | 1022.0 |
| 20260509174530 | 64 | 299 | 3.0 | 8.0 | 0.00 | 0.00 | 0.00 | 51 | 1021.9 |
| 20260509171531 | 62 | 345 | 4.0 | 8.0 | 0.00 | 0.00 | 0.00 | 50 | 1022.1 |
| 20260509170106 | 61 | 316 | 4.0 | 8.0 | 0.00 | 0.00 | 0.00 | 49 | 1022.2 |
| 20260509164607 | 60 | 341 | 4.0 | 7.0 | 0.00 | 0.00 | 0.00 | 49 | 1022.2 |
| 20260509163031 | 61 | 339 | 4.0 | 7.0 | 0.00 | 0.00 | 0.00 | 49 | 1022.2 |
| 20260509161533 | 60 | 336 | 3.0 | 5.0 | 0.00 | 0.00 | 0.00 | 50 | 1022.2 |
| 20260509160035 | 58 | 350 | 1.0 | 4.0 | 0.00 | 0.00 | 0.00 | 52 | 1022.3 |
| 20260509154529 | 57 | 40 | 3.0 | 6.0 | 0.00 | 0.00 | 0.00 | 52 | 1022.5 |
| 20260509153032 | 58 | 26 | 4.0 | 6.0 | 0.00 | 0.00 | 0.00 | 52 | 1022.5 |
| 20260509151535 | 57 | 49 | 0.0 | 4.0 | 0.00 | 0.00 | 0.00 | 53 | 1022.4 |
| 20260509150035 | 56 | 101 | 2.0 | 4.0 | 0.00 | 0.00 | 0.00 | 56 | 1022.3 |
| 20260509144528 | 55 | 139 | 3.0 | 5.0 | 0.00 | 0.00 | 0.00 | 60 | 1022.4 |
| 20260509143107 | 53 | 156 | 4.0 | 7.0 | 0.00 | 0.00 | 0.00 | 62 | 1022.4 |
| 20260509141652 | 51 | 145 | 4.0 | 7.0 | 0.00 | 0.00 | 0.00 | 66 | 1022.3 |
| 20260509140035 | 48 | 154 | 5.0 | 8.0 | 0.00 | 0.00 | 0.00 | 70 | 1022.3 |
| 20260509134528 | 44 | 149 | 5.0 | 9.0 | 0.00 | 0.00 | 0.00 | 72 | 1022.3 |
| 20260509133029 | 43 | 138 | 6.0 | 8.0 | 0.00 | 0.00 | 0.00 | 72 | 1022.2 |
| 20260509131535 | 43 | 154 | 6.0 | 10.0 | 0.00 | 0.00 | 0.00 | 73 | 1022.2 |
| 20260509130107 | 43 | 151 | 5.0 | 10.0 | 0.00 | 0.00 | 0.00 | 73 | 1021.9 |
| 20260509124530 | 43 | 159 | 6.0 | 10.0 | 0.00 | 0.00 | 0.00 | 73 | 1021.8 |
| 20260509123033 | 44 | 144 | 6.0 | 9.0 | 0.00 | 0.00 | 0.00 | 73 | 1021.8 |
| 20260509121532 | 45 | 159 | 5.0 | 9.0 | 0.00 | 0.00 | 0.00 | 73 | 1021.9 |
| 20260509120106 | 45 | 163 | 6.0 | 11.0 | 0.00 | 0.00 | 0.00 | 73 | 1021.8 |
| 20260509114532 | 45 | 154 | 6.0 | 10.0 | 0.00 | 0.00 | 0.00 | 73 | 1021.7 |
| 20260509113035 | 46 | 150 | 6.0 | 12.0 | 0.00 | 0.00 | 0.00 | 74 | 1021.8 |
| 20260509110037 | 46 | 137 | 5.0 | 12.0 | 0.00 | 0.00 | 0.00 | 75 | 1021.9 |
| 20260509103036 | 45 | 149 | 6.0 | 10.0 | 0.00 | 0.00 | 0.00 | 77 | 1022.0 |
| 20260509101535 | 45 | 146 | 6.0 | 11.0 | 0.00 | 0.00 | 0.00 | 78 | 1022.1 |
| 20260509100036 | 44 | 155 | 6.0 | 11.0 | 0.00 | 0.00 | 0.00 | 78 | 1022.2 |
| 20260509094534 | 44 | 156 | 5.0 | 10.0 | 0.00 | 0.00 | 0.00 | 79 | 1022.2 |
| 20260509093149 | 44 | 152 | 6.0 | 9.0 | 0.00 | 0.00 | 0.00 | 78 | 1022.3 |
| 20260509090035 | 45 | 142 | 6.0 | 10.0 | 0.00 | 0.00 | 0.00 | 78 | 1022.5 |
| 20260509084650 | 45 | 141 | 3.0 | 8.0 | 0.00 | 0.00 | 0.00 | 78 | 1022.8 |
| 20260509083038 | 45 | 134 | 6.0 | 11.0 | 0.00 | 0.00 | 0.00 | 78 | 1022.9 |
| 20260509081532 | 45 | 138 | 6.0 | 11.0 | 0.00 | 0.00 | 0.00 | 79 | 1023.1 |
| 20260509080035 | 45 | 137 | 4.0 | 9.0 | 0.00 | 0.00 | 0.00 | 79 | 1023.2 |
| 20260509074532 | 44 | 135 | 4.0 | 7.0 | 0.00 | 0.00 | 0.00 | 79 | 1023.4 |
| 20260509073033 | 44 | 150 | 4.0 | 9.0 | 0.00 | 0.00 | 0.00 | 79 | 1023.5 |
| 20260509071531 | 43 | 170 | 4.0 | 8.0 | 0.00 | 0.00 | 0.00 | 78 | 1023.5 |
| 20260509070032 | 44 | 181 | 4.0 | 6.0 | 0.00 | 0.00 | 0.00 | 77 | 1023.5 |
| 20260509064531 | 45 | 181 | 4.0 | 5.0 | 0.00 | 0.00 | 0.00 | 75 | 1023.6 |
| 20260509063031 | 46 | 165 | 2.0 | 4.0 | 0.00 | 0.00 | 0.00 | 73 | 1023.6 |
| 20260509061652 | 49 | 104 | 1.0 | 4.0 | 0.00 | 0.00 | 0.00 | 71 | 1023.6 |
| 20260509061642 | 51 | 72 | 3.0 | 5.0 | 0.00 | 0.00 | 0.00 | 71 | 1023.6 |
| 20260509051530 | 50 | 56 | 3.0 | 7.0 | 0.00 | 0.00 | 0.00 | 71 | 1023.4 |
| 20260509050035 | 50 | 72 | 2.0 | 5.0 | 0.00 | 0.00 | 0.00 | 69 | 1023.3 |
| 20260509044536 | 51 | 15 | 3.0 | 8.0 | 0.00 | 0.00 | 0.00 | 68 | 1023.1 |
| 20260509043036 | 51 | 325 | 4.0 | 7.0 | 0.00 | 0.00 | 0.00 | 66 | 1023.1 |
| 20260509041643 | 52 | 303 | 3.0 | 7.0 | 0.00 | 0.00 | 0.00 | 64 | 1022.9 |
| 20260509040028 | 53 | 281 | 4.0 | 11.0 | 0.00 | 0.00 | 0.00 | 64 | 1022.6 |
| 20260509034530 | 53 | 280 | 6.0 | 15.0 | 0.00 | 0.00 | 0.00 | 62 | 1022.4 |
| 20260509033032 | 54 | 275 | 6.0 | 13.0 | 0.00 | 0.00 | 0.00 | 61 | 1022.2 |
| 20260509031536 | 54 | 272 | 6.0 | 12.0 | 0.00 | 0.00 | 0.00 | 59 | 1022.1 |
| 20260509030029 | 55 | 275 | 6.0 | 16.0 | 0.00 | 0.00 | 0.00 | 57 | 1021.9 |